Location: ?????????
(41.2393°N, 22.9479°E)
Time: 14:19:16
(UTC+00:00)

CORIOLIS - Visible Passes

Search period start: 14 February 2026 00:00
Search period end: 24 February 2026 00:00
Orbit: 816 x 835 km, 98.7° (Epoch: 13 February)

Date Brightness Start Highest point End Pass type
(mag) Time Alt. Az. Time Alt. Az. Time Alt. Az.
14 Feb 5.0 04:29:40 10° NNE 04:34:59 57° E 04:40:13 10° S visible
14 Feb 7.8 17:37:37 10° W 17:38:40 11° W 17:39:44 10° WNW visible
15 Feb 5.8 04:10:46 10° NNE 04:15:45 38° E 04:20:41 10° SSE visible
15 Feb 7.3 17:15:54 10° SW 17:19:16 17° W 17:22:40 10° NW visible
16 Feb 6.5 03:52:04 10° NE 03:56:29 25° E 04:00:51 10° SSE visible
16 Feb 6.8 16:55:34 10° SSW 16:59:57 25° W 17:04:21 10° NW visible
17 Feb 7.1 03:33:42 10° NE 03:37:08 17° E 03:40:33 10° SE visible
17 Feb 6.0 16:35:42 10° SSW 16:40:40 36° W 16:45:40 10° NNW visible
18 Feb 7.6 03:16:25 10° ENE 03:17:45 11° E 03:19:04 10° ESE visible
19 Feb 4.8 04:34:08 10° NNE 04:39:28 62° ESE 04:44:44 10° S visible
20 Feb 5.6 04:15:11 10° NNE 04:20:15 41° E 04:25:16 10° SSE visible
20 Feb 7.5 17:20:48 10° SW 17:23:49 15° W 17:26:52 10° NW visible
21 Feb 6.4 03:56:26 10° NE 04:00:59 28° E 04:05:30 10° SSE visible
21 Feb 7.0 17:00:17 10° SW 17:04:29 23° W 17:08:40 10° NW visible
22 Feb 7.0 03:37:57 10° NE 03:41:40 19° E 03:45:21 10° SE visible
22 Feb 6.2 16:40:20 10° SSW 16:45:11 33° W 16:50:03 10° NNW visible
23 Feb 7.5 03:20:13 10° ENE 03:22:17 12° E 03:24:21 10° ESE visible
